Location: Newark
(43.9494°N, 6.8108°E)
Time: 20:44:25
(UTC+00:00)

A-11 Canister half - Pass Details

Date: 29 October 2019
Orbit: 1514 x 1685 km, 47.2° (Epoch: 20 November)

Event Time Altitude Azimuth Distance (km) Brightness Sun altitude
Rises 19:53:45 0° 168° (SSE) 4,924 - -37.3°
Reaches altitude 10° 19:59:49 10° 141° (SE) 3,939 - -38.3°
Maximum altitude 20:03:12 12° 121° (ESE) 3,764 - -38.9°
Drops below altitude 10° 20:06:34 10° 101° (E) 3,928 - -39.5°
Sets 20:12:31 0° 74° (ENE) 4,893 - -40.5°
